[[{"header":{"parameterUnit":"m.s-1","parameterCategory":1,"la1":30.2991,"la2":30.254,"lo1":-89.0895,"lo2":-89.0444,"dy":0.0017,"dx":0.0017,"nx":28,"ny":28,"refTime":"2023-08-28T21:00:00:Z","depth":0,"parameterNumber":2,"parameterNumberName":"U-component_of_WINDS"},"data":[0,0,0,0,0,0,0,0,0,0,0,0,0,0,0,0,0,0,0,0,0,0,0,0,0,0,0,0,0,0,0,0,0,0,0,0,0,0,0,0,0,0,0,0,0,0,0,0,0,0,0,0,0,0,0,0,0,0,-0.9029,-0.903,0,-0.9089,-0.9089,-0.909,-0.9106,-0.9105,-0.9105,-0.9105,-0.9167,-0.9169,-0.9171,0,0,0,0,0,0,0,0,0,0,0,0,0,-0.893,-0.8932,-0.9029,-0.903,-0.903,-0.9089,-0.9089,-0.909,-0.9106,-0.9105,-0.9105,-0.9105,-0.9167,-0.9169,-0.9171,0,0,0,0,0,0,0,0,0,0,0,0,0,-0.898,-0.8932,-0.9029,-0.9045,-0.9047,-0.9088,-0.9089,-0.909,-0.9106,-0.9105,-0.9105,-0.9104,-0.9166,-0.9169,-0.9172,-0.9201,0,0,-0.9181,-0.9182,0,0,0,0,0,0,0,0,-0.8977,-0.8983,-0.9042,-0.9044,-0.9047,-0.9089,-0.9077,-0.9128,-0.9106,-0.9084,-0.9105,-0.9104,-0.9142,-0.9147,-0.9159,-0.9204,-0.9207,-0.9181,-0.9183,-0.9184,-0.9185,0,0,0,0,0,0,0,-0.8973,-0.8981,-0.9053,-0.9043,-0.9046,-0.905,-0.9057,-0.9087,-0.9115,-0.9086,-0.9087,-0.9094,-0.9143,-0.9156,-0.9161,-0.9208,-0.9181,-0.9184,-0.9186,-0.9187,-0.928,-0.9281,0,0,0,0,0,0,-0.8967,-0.8978,-0.9051,-0.9054,-0.901,-0.9052,-0.906,-0.9076,-0.9115,-0.912,-0.9094,-0.9094,-0.9151,-0.9157,-0.9163,-0.9201,-0.9184,-0.9187,-0.9189,-0.928,-0.9281,-0.9281,0,0,0,0,0,0,-0.8965,-0.8973,-0.9048,-0.9017,-0.9026,-0.9055,-0.9073,-0.9078,-0.9091,-0.9121,-0.9126,-0.9102,-0.9151,-0.9159,-0.9192,-0.9203,-0.9188,-0.9191,-0.9279,-0.928,-0.9281,-0.9276,0,0,0,0,0,0,-0.8962,-0.8972,-0.8984,-0.9017,-0.9028,-0.9075,-0.9074,-0.9079,-0.9096,-0.9097,-0.913,-0.9136,-0.9151,-0.9187,-0.9195,-0.9207,-0.9194,-0.9278,-0.9279,-0.9281,-0.9275,-0.9276,-0.9277,0,0,0,0,0,-0.8958,-0.898,-0.8984,-0.8993,-0.9042,-0.9076,-0.9083,-0.91,-0.9097,-0.9108,-0.9128,-0.9134,-0.92,-0.919,-0.9199,-0.9212,-0.9277,-0.9279,-0.9281,-0.9274,-0.9276,-0.9277,0,0,0,0,0,0,-0.8948,-0.8984,-0.899,-0.9022,-0.9046,-0.9079,-0.9094,-0.9101,-0.9127,-0.9126,-0.9147,-0.9155,-0.9186,-0.9202,-0.9191,-0.9243,-0.9239,-0.9242,-0.9231,-0.9233,-0.9234,-0.923,-0.9196,0,0,0,0,0,-0.8949,-0.8973,-0.9004,-0.903,-0.9041,-0.9066,-0.9081,-0.9092,-0.9118,-0.9128,-0.915,-0.9175,-0.9201,-0.9218,-0.9244,-0.9277,-0.9285,-0.9291,-0.9292,-0.9293,-0.9296,-0.9315,-0.9318,-0.9286,-0.9286,-0.9286,0,0,-0.8953,-0.8976,-0.8989,-0.9028,-0.9048,-0.9073,-0.9074,-0.91,-0.9118,-0.9132,-0.9164,-0.9181,-0.921,-0.9244,-0.9259,-0.9258,-0.9306,-0.9295,-0.9295,-0.9298,-0.9317,-0.932,-0.9323,-0.9287,-0.9287,-0.9287,0,0,-0.8971,-0.8991,-0.9015,-0.9034,-0.9064,-0.908,-0.9085,-0.9117,-0.9129,-0.9162,-0.9172,-0.9195,-0.924,-0.926,-0.9276,-0.9303,-0.931,-0.9311,-0.9318,-0.9337,-0.9339,-0.9341,-0.9352,-0.9355,-0.9314,-0.9314,-0.9314,0,-0.8972,-0.9009,-0.9026,-0.9052,-0.9069,-0.9082,-0.9107,-0.9125,-0.9161,-0.9173,-0.9171,-0.9228,-0.9248,-0.9287,-0.9293,-0.9306,-0.9314,-0.9307,-0.9337,-0.934,-0.9342,-0.9352,-0.9356,-0.9313,-0.9313,-0.9313,-0.9313,0,-0.9009,-0.9034,-0.905,-0.9085,-0.9104,-0.9129,-0.915,-0.9167,-0.9177,-0.9193,-0.9227,-0.9252,-0.9283,-0.9293,-0.9303,-0.9333,-0.9331,-0.9333,-0.933,-0.9345,-0.9355,-0.9358,-0.9313,-0.9313,-0.9313,-0.9313,0,0,-0.9023,-0.9066,-0.9072,-0.9088,-0.9122,-0.9142,-0.9168,-0.9198,-0.9213,-0.9237,-0.926,-0.9298,-0.9299,-0.9318,-0.933,-0.9346,-0.9367,-0.9346,-0.9347,-0.935,-0.9402,-0.9401,-0.9405,-0.9371,-0.9372,-0.9373,-0.94,0,-0.9046,-0.9092,-0.9109,-0.9147,-0.9171,-0.9183,-0.9206,-0.9229,-0.9245,-0.9268,-0.9286,-0.9313,-0.9313,-0.9324,-0.9341,-0.936,-0.9378,-0.9359,-0.9393,-0.9394,-0.9386,-0.941,-0.9409,-0.9434,-0.9404,-0.9404,-0.9405,0,-0.9079,-0.9104,-0.9145,-0.9176,-0.9186,-0.9206,-0.9236,-0.9257,-0.9284,-0.9295,-0.9315,-0.9326,-0.9355,-0.9349,-0.9388,-0.9375,-0.939,-0.9402,-0.9403,-0.9408,-0.9401,-0.9416,-0.9442,-0.9446,-0.9411,-0.941,-0.941,0,-0.9086,-0.913,-0.916,-0.9173,-0.921,-0.9224,-0.924,-0.9266,-0.9283,-0.9309,-0.932,-0.9349,-0.9365,-0.9387,-0.9406,-0.94,-0.9444,-0.944,-0.9454,-0.9454,-0.9463,-0.9462,-0.9493,-0.9472,-0.9472,-0.9472,-0.9471,0,-0.9111,-0.9135,-0.9164,-0.9182,-0.921,-0.9229,-0.9256,-0.9273,-0.9296,-0.9319,-0.9331,-0.9352,-0.9375,-0.9399,-0.9414,-0.9445,-0.9452,-0.9462,-0.9466,-0.9461,-0.946,-0.9472,-0.9471,-0.9473,-0.9472,-0.9472,-0.9472,0,-0.9124,-0.9143,-0.9177,-0.9209,-0.9217,-0.9236,-0.9264,-0.9283,-0.9299,-0.9327,-0.9335,-0.9361,-0.939,-0.9411,-0.9448,-0.9458,-0.9491,-0.9495,-0.9482,-0.9484,-0.9498,-0.9496,-0.9537,-0.9544,-0.9518,-0.9518,-0.9518,0,-0.9138,-0.9157,-0.9191,-0.9207,-0.9223,-0.9248,-0.9265,-0.9285,-0.9303,-0.9335,-0.935,-0.9379,-0.9404,-0.945,-0.9473,-0.9502,-0.9506,-0.9519,-0.9511,-0.9506,-0.9507,-0.9506,-0.9509,-0.952,-0.952,-0.952,-0.952,0,-0.9162,-0.9171,-0.9196,-0.9224,-0.9245,-0.9268,-0.9291,-0.9304,-0.9327,-0.9347,-0.9377,-0.9396,-0.9434,-0.9464,-0.9495,-0.9512,-0.952,-0.9522,-0.9528,-0.9523,-0.9516,-0.9521,-0.9486,-0.9522,-0.9521,-0.9521,-0.9521,-0.9521,-0.9177,-0.9195,-0.9221,-0.9248,-0.9268,-0.929,-0.9309,-0.9328,-0.9352,-0.9385,-0.9395,-0.9426,-0.9453,-0.9495,-0.9513,-0.9537,-0.9537,-0.9544,-0.9546,-0.9547,-0.9548,-0.9511,-0.9543,-0.9543,-0.9543,-0.9543,-0.9543,0,-0.9202,-0.922,-0.9245,-0.9277,-0.9299,-0.9304,-0.933,-0.9348,-0.9375,-0.9399,-0.9423,-0.9458,-0.9486,-0.9511,-0.9541,-0.9556,-0.9561,-0.9564,-0.9563,-0.9567,-0.9546,-0.9539,-0.9559,-0.9559,-0.9559,-0.9559,-0.9559,-0.9559,-0.9218,-0.9248,-0.926,-0.9301,-0.9319,-0.9349,-0.9363,-0.9383,-0.9403,-0.944,-0.9464,-0.948,-0.9505,-0.9537,-0.9564,-0.957,-0.9581,-0.9583,-0.959,-0.957,-0.9569,-0.9567,-0.956,-0.9585,-0.9585,-0.961,-0.961,-0.961]},{"header":{"parameterUnit":"m.s-1","parameterCategory":1,"la1":30.2991,"la2":30.254,"lo1":-89.0895,"lo2":-89.0444,"dy":0.0017,"dx":0.0017,"nx":28,"ny":28,"refTime":"2023-08-28T21:00:00:Z","depth":0,"parameterNumber":3,"parameterNumberName":"V-component_of_WINDS"},"data":[0,0,0,0,0,0,0,0,0,0,0,0,0,0,0,0,0,0,0,0,0,0,0,0,0,0,0,0,0,0,0,0,0,0,0,0,0,0,0,0,0,0,0,0,0,0,0,0,0,0,0,0,0,0,0,0,0,0,-5.2054,-5.2054,0,-5.2063,-5.2063,-5.2063,-5.1999,-5.1997,-5.1995,-5.1993,-5.2,-5.2002,-5.2004,0,0,0,0,0,0,0,0,0,0,0,0,0,-5.1979,-5.198,-5.2054,-5.2054,-5.2054,-5.2063,-5.2063,-5.2063,-5.1999,-5.1997,-5.1995,-5.1993,-5.2,-5.2002,-5.2004,0,0,0,0,0,0,0,0,0,0,0,0,0,-5.2002,-5.1981,-5.2054,-5.2023,-5.202,-5.2063,-5.2063,-5.2063,-5.1999,-5.1997,-5.1994,-5.1992,-5.1999,-5.2002,-5.2004,-5.2076,0,0,-5.2013,-5.2014,0,0,0,0,0,0,0,0,-5.2001,-5.2005,-5.2027,-5.2025,-5.2022,-5.2027,-5.2039,-5.2067,-5.2,-5.2007,-5.1993,-5.199,-5.2011,-5.2013,-5.202,-5.2076,-5.2076,-5.2013,-5.2015,-5.2016,-5.2017,0,0,0,0,0,0,0,-5.1999,-5.2004,-5.2057,-5.2028,-5.2025,-5.2008,-5.2009,-5.2044,-5.2024,-5.2007,-5.2002,-5.2004,-5.2009,-5.2018,-5.202,-5.2077,-5.2013,-5.2016,-5.2017,-5.2018,-5.2194,-5.2196,0,0,0,0,0,0,-5.2002,-5.2003,-5.2057,-5.2058,-5.2005,-5.2012,-5.2012,-5.2028,-5.2024,-5.202,-5.2006,-5.2001,-5.2014,-5.2017,-5.202,-5.2105,-5.2016,-5.2019,-5.202,-5.2191,-5.2194,-5.2197,0,0,0,0,0,0,-5.2001,-5.2007,-5.2057,-5.2029,-5.2034,-5.2016,-5.2035,-5.203,-5.2038,-5.2024,-5.2019,-5.2019,-5.2012,-5.2016,-5.2063,-5.2104,-5.202,-5.2022,-5.2187,-5.2192,-5.2196,-5.2275,0,0,0,0,0,0,-5.1999,-5.2007,-5.2034,-5.203,-5.2036,-5.21,-5.2037,-5.2032,-5.2044,-5.2037,-5.2034,-5.2031,-5.201,-5.2059,-5.2066,-5.2107,-5.2025,-5.2183,-5.2189,-5.2194,-5.2268,-5.2281,-5.2293,0,0,0,0,0,-5.1996,-5.2055,-5.2036,-5.2043,-5.207,-5.2103,-5.2106,-5.2081,-5.2047,-5.2075,-5.2065,-5.2031,-5.2099,-5.2065,-5.2072,-5.2114,-5.2181,-5.2188,-5.2194,-5.2263,-5.2279,-5.2292,0,0,0,0,0,0,-5.2063,-5.2054,-5.2033,-5.2092,-5.2099,-5.2092,-5.2125,-5.2099,-5.2114,-5.2107,-5.2075,-5.2075,-5.2128,-5.2125,-5.2088,-5.2184,-5.2134,-5.2142,-5.2184,-5.2199,-5.221,-5.221,-5.2027,0,0,0,0,0,-5.2085,-5.2113,-5.2103,-5.2157,-5.2162,-5.2143,-5.2156,-5.2138,-5.2143,-5.2145,-5.2139,-5.2145,-5.2167,-5.2182,-5.2202,-5.2268,-5.2267,-5.23,-5.2312,-5.2322,-5.233,-5.2366,-5.2381,-5.2219,-5.2219,-5.2219,0,0,-5.213,-5.2128,-5.2148,-5.217,-5.2173,-5.2203,-5.2146,-5.2179,-5.2201,-5.2149,-5.2194,-5.219,-5.2195,-5.2252,-5.2277,-5.2251,-5.2375,-5.2331,-5.2339,-5.2341,-5.2375,-5.239,-5.2404,-5.2224,-5.2223,-5.2222,0,0,-5.2227,-5.2229,-5.2275,-5.228,-5.2285,-5.2273,-5.2284,-5.2282,-5.2278,-5.2323,-5.2285,-5.231,-5.2349,-5.2355,-5.2362,-5.2465,-5.2435,-5.2472,-5.2535,-5.2571,-5.2583,-5.2595,-5.2633,-5.2646,-5.248,-5.248,-5.248,0,-5.2282,-5.2327,-5.2301,-5.2338,-5.235,-5.2306,-5.2352,-5.2358,-5.2369,-5.2378,-5.235,-5.24,-5.2399,-5.2458,-5.2483,-5.249,-5.2503,-5.2472,-5.2584,-5.2595,-5.2605,-5.2641,-5.2655,-5.2485,-5.2484,-5.2484,-5.2483,0,-5.2395,-5.2426,-5.2462,-5.2477,-5.2492,-5.2534,-5.2515,-5.2533,-5.2513,-5.2504,-5.2551,-5.2549,-5.2569,-5.2581,-5.2561,-5.2638,-5.2622,-5.2589,-5.2538,-5.2625,-5.2659,-5.2672,-5.2491,-5.2489,-5.2488,-5.2487,0,0,-5.2533,-5.2535,-5.2549,-5.2556,-5.2561,-5.2584,-5.2624,-5.2645,-5.2662,-5.2672,-5.2705,-5.274,-5.2711,-5.272,-5.27,-5.2731,-5.2815,-5.2695,-5.2694,-5.2718,-5.2901,-5.2926,-5.2943,-5.2795,-5.2797,-5.2799,-5.2901,0,-5.263,-5.27,-5.2679,-5.2748,-5.2778,-5.2738,-5.2773,-5.278,-5.2772,-5.2796,-5.2787,-5.2814,-5.2772,-5.2777,-5.2806,-5.2798,-5.2851,-5.2791,-5.2825,-5.2827,-5.2827,-5.296,-5.2986,-5.3082,-5.2913,-5.2916,-5.2917,0,-5.2751,-5.2769,-5.2843,-5.2844,-5.2856,-5.2888,-5.2906,-5.2929,-5.2936,-5.2929,-5.2941,-5.2915,-5.2954,-5.2903,-5.2957,-5.2917,-5.293,-5.2928,-5.2931,-5.2934,-5.2878,-5.2967,-5.3112,-5.3127,-5.2937,-5.2935,-5.2934,0,-5.2847,-5.2889,-5.2939,-5.2946,-5.2949,-5.2973,-5.2975,-5.2979,-5.2993,-5.3009,-5.3019,-5.3038,-5.3049,-5.3065,-5.3045,-5.301,-5.3103,-5.305,-5.3098,-5.3099,-5.312,-5.3119,-5.3271,-5.3127,-5.3127,-5.3126,-5.3126,0,-5.2958,-5.3005,-5.2982,-5.3013,-5.3065,-5.304,-5.3092,-5.3089,-5.3094,-5.3124,-5.3089,-5.3117,-5.309,-5.3115,-5.31,-5.3148,-5.3153,-5.3148,-5.3144,-5.3152,-5.3153,-5.3161,-5.3154,-5.313,-5.3129,-5.3129,-5.3128,0,-5.3074,-5.306,-5.3113,-5.3112,-5.3113,-5.3152,-5.3151,-5.3179,-5.317,-5.3208,-5.3216,-5.3201,-5.323,-5.3213,-5.3241,-5.3231,-5.3294,-5.328,-5.3292,-5.3289,-5.3339,-5.3335,-5.3501,-5.3522,-5.3364,-5.3366,-5.3367,0,-5.3146,-5.3181,-5.3186,-5.3204,-5.3209,-5.3238,-5.3254,-5.3231,-5.3249,-5.3261,-5.3288,-5.3314,-5.3334,-5.3382,-5.3374,-5.3396,-5.3382,-5.3439,-5.3385,-5.3393,-5.3385,-5.3384,-5.3388,-5.345,-5.3452,-5.3453,-5.3455,0,-5.3275,-5.3268,-5.3292,-5.3316,-5.3336,-5.3352,-5.3365,-5.3382,-5.336,-5.3381,-5.3411,-5.3427,-5.3457,-5.3484,-5.3503,-5.3504,-5.3477,-5.3472,-5.3484,-5.3494,-5.35,-5.3499,-5.3323,-5.3468,-5.3467,-5.3466,-5.3465,-5.3465,-5.3372,-5.3403,-5.3412,-5.3441,-5.3449,-5.3463,-5.3491,-5.3487,-5.3512,-5.3536,-5.3521,-5.3557,-5.3564,-5.3587,-5.3592,-5.3619,-5.3596,-5.3614,-5.3619,-5.3624,-5.3632,-5.3496,-5.3622,-5.3622,-5.3622,-5.3621,-5.3621,0,-5.3501,-5.3506,-5.3533,-5.3554,-5.3578,-5.3551,-5.3565,-5.3586,-5.3618,-5.3628,-5.3649,-5.3684,-5.3711,-5.3706,-5.3729,-5.3752,-5.374,-5.3759,-5.3758,-5.3759,-5.365,-5.3638,-5.3769,-5.3769,-5.3769,-5.3769,-5.3769,-5.3769,-5.3572,-5.3623,-5.3617,-5.3672,-5.3676,-5.3712,-5.3723,-5.3736,-5.3744,-5.3786,-5.3808,-5.3805,-5.3809,-5.3833,-5.3856,-5.3854,-5.3865,-5.3889,-5.3883,-5.3781,-5.3766,-5.3753,-5.3741,-5.3892,-5.3892,-5.3989,-5.399,-5.3991]}]]